This is the latest recevied weather packets stored in our database for station/object SP8IZA-1. If no packets are shown the sender has not sent any weather packets the latest 10 day(s).
| Time | Temp. | Humidity | Pressure | Rain* | Wind** | Luminosity | Snow |
|---|---|---|---|---|---|---|---|
| 1777375766 | 15.56° C | 41% | 1021.7 hPa | - | - | - | - |
| 1777375465 | 16.67° C | 41% | 1021.7 hPa | - | - | - | - |
| 1777375165 | 17.78° C | 40% | 1021.6 hPa | - | - | - | - |
| 1777374864 | 18.33° C | 40% | 1021.6 hPa | - | - | - | - |
| 1777374563 | 17.22° C | 41% | 1021.5 hPa | - | - | - | - |
| 1777374263 | 16.11° C | 41% | 1021.7 hPa | - | - | - | - |
| 1777373963 | 16.11° C | 41% | 1021.7 hPa | - | - | - | - |
| 1777373662 | 16.67° C | 41% | 1021.7 hPa | - | - | - | - |
| 1777373362 | 16.67° C | 41% | 1021.7 hPa | - | - | - | - |
| 1777373061 | 16.11° C | 41% | 1021.8 hPa | - | - | - | - |
| 1777372760 | 16.11° C | 41% | 1021.7 hPa | - | - | - | - |
| 1777372460 | 16.11° C | 41% | 1021.8 hPa | - | - | - | - |
| 1777372160 | 15.56° C | 41% | 1021.8 hPa | - | - | - | - |
| 1777371859 | 15.56° C | 41% | 1021.8 hPa | - | - | - | - |
| 1777371559 | 15.56° C | 41% | 1021.8 hPa | - | - | - | - |
| 1777371258 | 15.56° C | 41% | 1021.8 hPa | - | - | - | - |
| 1777370957 | 15.56° C | 41% | 1021.7 hPa | - | - | - | - |
| 1777370657 | 15° C | 41% | 1021.8 hPa | - | - | - | - |
| 1777370356 | 15° C | 41% | 1021.8 hPa | - | - | - | - |
| 1777370056 | 15° C | 42% | 1021.9 hPa | - | - | - | - |
| 1777369755 | 14.44° C | 42% | 1021.9 hPa | - | - | - | - |
| 1777369455 | 13.89° C | 42% | 1021.9 hPa | - | - | - | - |
| 1777369155 | 13.89° C | 42% | 1021.9 hPa | - | - | - | - |
| 1777368854 | 13.33° C | 43% | 1022 hPa | - | - | - | - |
| 1777368554 | 13.33° C | 43% | 1022 hPa | - | - | - | - |
* Rain since midnight (hover to see other rain measurements)
** Current wind speed in m/s (hover to see current wind gust speed)